Kodiak, AK

12:27 AM AKST on February 24, 2017 (GMT -0900)
Kodiak

Weather History for PADQ - May, 2012

Change the Weather History Date:

Tuesday, May 29, 2012

  Actual Average Record
Temperature  
Mean Temperature 45 °F 47 °F  
Max Temperature 47 °F 52 °F 76 °F (1993)
Min Temperature 42 °F 41 °F 31 °F (1966)
Degree Days  
Heating Degree Days 20 18  
Month to date heating degree days 649 606  
Since 1 July heating degree days 8937 8298  
Cooling Degree Days 0    
Month to date cooling degree days 0  
Year to date cooling degree days 0  
Moisture  
Dew Point 40 °F    
Average Humidity 0    
Maximum Humidity 0    
Minimum Humidity 0    
Precipitation  
Precipitation 0.07 in 0.21 in 2.14 in (1998)
Month to date precipitation 4.22 5.21  
Year to date precipitation 23.93 30.98  
Snow  
Snow 0.00 in 0.00 in 0.10 in (1971)
Month to date snowfall 3.2 0.2  
Snow Depth 0.00 in    
Sea Level Pressure  
Sea Level Pressure 29.39 in    
Wind  
Wind Speed 17 mph (NE)    
Max Wind Speed 26 mph    
Max Gust Speed 33 mph    
Visibility 8 miles    
Events Rain    
T = Trace of Precipitation, MM = Missing Value Source: NWS Daily Summary

Daily Weather History Graph

Daily Weather History Graph

Search for Another Location

Airport or City:

Trip Planner

Search our weather history database for the weather conditions in past years. The results will help you decide how hot, cold, wet, or windy it might be!

Date:

Astronomy

May. 29, 2012 Rise Set
Actual Time 5:21 AM AKDT 10:54 PM AKDT
Civil Twilight 4:17 AM AKDT 11:58 PM AKDT
Nautical Twilight 2:39 AM AKDT 1:35 AM AKDT
Astronomical Twilight Sun does not rise Sun does not rise
Moon 3:20 PM AKDT (5/29) 2:44 AM AKDT (5/29)
Length of Visible Light 19h 40m
Length of Day
17h 32m
First Quarter, 61% of the Moon is Illuminated
May 29
First Quarter
Jun 4
Full
Jun 11
Last Quarter
Jun 19
New
Jun 26
First Quarter

Hourly Weather History & Observations

Time (AKDT) Temp. Windchill Dew Point Humidity Pressure Visibility Wind Dir Wind Speed Gust Speed Precip Events Conditions
12:06 AM 44.6 °F 38.4 °F 39.2 °F 81% 29.57 in 10.0 mi ENE 12.7 mph - 0.00 in Rain Light Rain
12:53 AM 43.0 °F 36.0 °F 39.9 °F 89% 29.57 in 10.0 mi ENE 13.8 mph - 0.00 in   Overcast
1:53 AM 43.0 °F 36.0 °F 39.9 °F 89% 29.55 in 10.0 mi NE 13.8 mph - 0.00 in Rain Light Rain
2:53 AM 43.0 °F 37.2 °F 37.9 °F 82% 29.53 in 10.0 mi NE 10.4 mph - 0.00 in   Overcast
3:00 AM 42.8 °F 36.6 °F 39.2 °F 87% 29.53 in 10.0 mi NE 11.5 mph - N/A   Overcast
3:20 AM 42.8 °F 37.5 °F 39.2 °F 87% 29.52 in 10.0 mi NE 9.2 mph - N/A   Overcast
3:53 AM 42.1 °F 35.2 °F 39.0 °F 89% 29.50 in 8.0 mi ENE 12.7 mph - 0.01 in Rain Light Rain
4:09 AM 42.8 °F 35.8 °F 39.2 °F 87% 29.50 in 6.0 mi East 13.8 mph - 0.02 in Rain Light Rain
4:21 AM 42.8 °F 34.8 °F 39.2 °F 87% 29.50 in 10.0 mi ENE 17.3 mph 20.7 mph 0.02 in   Overcast
4:53 AM 43.0 °F 36.0 °F 39.9 °F 89% 29.48 in 10.0 mi NE 13.8 mph - 0.02 in   Overcast
5:04 AM 42.8 °F 34.3 °F 39.2 °F 87% 29.48 in 10.0 mi NE 19.6 mph - 0.00 in Rain Light Rain
5:53 AM 43.0 °F 35.1 °F 39.0 °F 86% 29.47 in 10.0 mi NE 17.3 mph - 0.00 in   Overcast
5:57 AM 42.8 °F 35.1 °F 39.2 °F 87% 29.47 in 10.0 mi NE 16.1 mph - N/A   Overcast
6:53 AM 44.1 °F 35.9 °F 39.9 °F 85% 29.46 in 10.0 mi ENE 19.6 mph - N/A   Overcast
7:19 AM 42.8 °F 35.4 °F 39.2 °F 87% 29.45 in 10.0 mi NE 15.0 mph - 0.00 in Rain Light Rain
7:22 AM 42.8 °F 34.5 °F 39.2 °F 87% 29.45 in 10.0 mi NE 18.4 mph - 0.00 in Rain Light Rain
7:53 AM 44.1 °F 37.4 °F 37.9 °F 79% 29.44 in 10.0 mi NE 13.8 mph - 0.00 in   Overcast
8:53 AM 44.1 °F 36.5 °F 39.9 °F 85% 29.42 in 10.0 mi NE 17.3 mph 24.2 mph 0.00 in Rain Light Rain
9:53 AM 45.0 °F 36.9 °F 41.0 °F 86% 29.40 in 10.0 mi NE 20.7 mph - 0.01 in Rain Light Rain
10:53 AM 46.0 °F 38.5 °F 41.0 °F 83% 29.39 in 10.0 mi NE 19.6 mph - 0.00 in   Overcast
11:53 AM 46.9 °F - 42.1 °F 83% 29.39 in 10.0 mi ENE 15.0 mph - 0.00 in   Mostly Cloudy
12:53 PM 45.0 °F 36.9 °F 39.9 °F 82% 29.38 in 10.0 mi NE 20.7 mph - 0.01 in   Mostly Cloudy
1:53 PM 44.1 °F 35.7 °F 41.0 °F 89% 29.37 in 5.0 mi NE 20.7 mph 31.1 mph 0.01 in Rain Light Rain
2:53 PM 44.1 °F 34.8 °F 41.0 °F 89% 29.36 in 6.0 mi NE 25.3 mph 33.4 mph 0.01 in Rain Light Rain
3:53 PM 44.1 °F 34.6 °F 41.0 °F 89% 29.34 in 3.0 mi NE 26.5 mph 34.5 mph 0.04 in Rain Rain
4:14 PM 44.6 °F 35.7 °F 39.2 °F 81% - 10.0 mi NE 24.2 mph - 0.01 in Rain Light Rain
4:53 PM 44.1 °F 34.8 °F 39.9 °F 85% 29.36 in 10.0 mi NE 25.3 mph 31.1 mph 0.02 in Rain Light Rain
5:22 PM 44.6 °F 35.5 °F 41.0 °F 87% 29.31 in 5.0 mi NE 25.3 mph 33.4 mph 0.00 in Rain Light Rain
5:53 PM 44.1 °F 35.0 °F 41.0 °F 89% 29.34 in 6.0 mi NE 24.2 mph 29.9 mph 0.02 in Rain Light Rain
6:45 PM 44.6 °F 35.9 °F 41.0 °F 87% 29.28 in 4.0 mi NE 23.0 mph 32.2 mph 0.04 in Rain Rain
6:48 PM 44.6 °F 35.3 °F 41.0 °F 87% 29.28 in 4.0 mi NE 26.5 mph 32.2 mph 0.04 in Rain Light Rain
6:53 PM 44.1 °F 35.0 °F 41.0 °F 89% 29.27 in 5.0 mi NE 24.2 mph 32.2 mph 0.05 in Rain Light Rain
7:36 PM 44.6 °F 35.9 °F 41.0 °F 87% 29.26 in 7.0 mi NE 23.0 mph 31.1 mph 0.02 in Rain Light Rain
7:53 PM 44.1 °F 34.6 °F 41.0 °F 89% 29.30 in 7.0 mi NE 26.5 mph 31.1 mph 0.02 in Rain Light Rain
8:53 PM 44.1 °F 34.8 °F 41.0 °F 89% 29.24 in 6.0 mi NE 25.3 mph 31.1 mph 0.03 in Rain Light Rain
9:05 PM 44.6 °F 35.7 °F 41.0 °F 87% 29.24 in 5.0 mi NE 24.2 mph 33.4 mph 0.00 in Rain Light Rain
9:53 PM 44.1 °F 34.8 °F 41.0 °F 89% 29.22 in 4.0 mi NE 25.3 mph - 0.03 in Rain Light Rain
10:53 PM 44.1 °F 35.2 °F 42.1 °F 93% 29.22 in 4.0 mi NE 23.0 mph 29.9 mph 0.06 in Rain Rain
11:53 PM 44.1 °F 35.0 °F 42.1 °F 93% 29.21 in 4.0 mi NE 24.2 mph 29.9 mph 0.05 in   Overcast